Stations météo

réclame
Mon MeteoGroup
Ueckermünde, Allemagne (10193): Température de l'air & dewpoint: 12.02.2019 17:00:00 - 18.02.2019 17:00:00 (CET)Ueckermünde, Allemagne (10193): Température de l'air 5cm & Température de l'air -5cm: 12.02.2019 17:00:00 - 18.02.2019 17:00:00 (CET)Ueckermünde, Allemagne (10193): Température de l'air -20cm & Température de l'air -100cm: 12.02.2019 17:00:00 - 18.02.2019 17:00:00 (CET)Ueckermünde, Allemagne (10193): Vitesse du vent & gusts: 12.02.2019 17:00:00 - 18.02.2019 17:00:00 (CET)Ueckermünde, Allemagne (10193): Direction du vent: 12.02.2019 17:00:00 - 18.02.2019 17:00:00 (CET)Ueckermünde, Allemagne (10193): reduced air pressure: 12.02.2019 17:00:00 - 18.02.2019 17:00:00 (CET)Ueckermünde, Allemagne (10193): visibility: 12.02.2019 17:00:00 - 18.02.2019 17:00:00 (CET)Ueckermünde, Allemagne (10193): Ensoleillement: 12.02.2019 17:00:00 - 18.02.2019 17:00:00 (CET)Ueckermünde, Allemagne (10193): Quantités de précipitations: 12.02.2019 17:00:00 - 18.02.2019 17:00:00 (CET)
Date & Time tt [°C] td [°C] tt 5cm [°C] tt -5cm [°C] tt -20cm [°C] tt -100cm [°C] ff [km/h] ff [knt] fx [km/h] fx [knt] dd ppp [hPa] vv [km] sd [min] rr [mm]
18.02.2019 17:00:00 10,3 4,0 7,7 7,4 5,1 5,2 9 5 17 9 S 1016,8 13 58 0,0
18.02.2019 16:00:00 12,6 4,5 12,0 8,5 4,7 5,2 11 6 19 10 S 1017,3 12 60 0,0
18.02.2019 15:00:00 12,9 4,0 13,2 9,0 4,3 5,2 11 6 16 9 S 1017,7 13 60 0,0
18.02.2019 14:00:00 12,1 3,6 13,1 8,8 3,8 5,2 10 5 16 8 S 1018,1 13 60 0,0
18.02.2019 13:00:00 10,6 3,5 12,1 7,6 3,4 5,2 10 6 16 9 S 1019,0 9 60 0,0
18.02.2019 12:00:00 8,4 3,1 10,2 5,9 3,1 5,2 12 7 18 10 S 1019,5 8 60 0,0
18.02.2019 11:00:00 6,4 2,6 7,1 3,2 3,0 5,2 13 7 20 11 S 1019,8 7 60 0,0
18.02.2019 10:00:00 3,9 1,6 3,7 0,8 3,1 5,2 13 7 20 11 SSW 1020,2 5 60 0,0
18.02.2019 09:00:00 1,7 0,5 0,8 0,8 3,2 5,2 8 5 14 8 S 1020,3 3,0 46 0,0
18.02.2019 08:00:00 1,1 0,3 -1,3 0,8 3,3 5,2 6 3 18 10 SSW 1019,9 2,2 0 0,0
18.02.2019 07:00:00 1,0 0,3 -1,4 0,9 3,4 5,2 8 4 12 6 S 1019,7 2,8 0 0,0
18.02.2019 06:00:00 1,9 1,3 -1,1 1,0 3,5 5,2 6 3 16 9 S 1020,1 3,2 0 0,0
18.02.2019 05:00:00 2,5 2,1 0,1 1,1 3,7 5,2 9 5 13 7 SSE 1020,5 2,8 0 0,0
18.02.2019 04:00:00 2,3 1,8 -2,2 1,2 3,8 5,1 4 2 10 5 SE 1020,8 2,6 0 0,0
18.02.2019 03:00:00 3,0 2,4 0,9 1,3 4,0 5,1 9 5 14 7 SSE 1021,0 3,2 0 0,0
18.02.2019 02:00:00 2,3 2,1 -2,0 1,4 4,1 5,1 6 3 9 5 SE 1021,7 1,1 0 0,0
18.02.2019 01:00:00 2,0 2,0 -2,5 1,5 4,3 5,1 3 2 9 5 S 1022,2 0,1 0 0,0
18.02.2019 00:00:00 4,5 4,0 -1,2 1,7 4,5 5,1 5 3 11 6 ESE 1022,4 4,5 0 0,0
17.02.2019 23:00:00 4,7 3,9 1,4 2,0 4,8 5,1 8 4 12 7 SSE 1022,6 9 0 0,0
17.02.2019 22:00:00 3,0 2,6 -1,6 2,6 5,0 5,1 6 3 11 6 S 1023,1 0,3 0 0,0
17.02.2019 21:00:00 6,2 5,1 0,5 3,2 5,2 5,1 5 3 12 6 SE 1023,1 10 0 0,0
17.02.2019 20:00:00 7,1 5,5 2,3 3,7 5,4 5,1 6 3 12 7 SE 1023,1 18 0 0,0
17.02.2019 19:00:00 5,7 4,3 1,0 4,6 5,5 5,1 6 3 10 5 ESE 1023,2 12 0 0,0
17.02.2019 18:00:00 6,2 5,0 2,2 5,9 5,5 5,1 5 3 7 4 E 1023,4 12 0 0,0
17.02.2019 17:00:00 7,9 5,3 6,4 7,7 5,4 5,1 4 2 13 7 ESE 1023,5 12 0 0,0
17.02.2019 16:00:00 10,7 6,6 10,3 8,1 5,1 5,1 6 3 10 5 S 1023,7 20 0 0,0
17.02.2019 15:00:00 11,0 6,8 10,8 8,1 4,9 5,1 9 5 15 8 SW 1024,0 29 0 0,0
17.02.2019 14:00:00 10,8 6,7 10,9 7,8 4,6 5,1 8 5 14 8 SW 1024,3 20 0 0,0
17.02.2019 13:00:00 9,9 5,8 10,1 7,0 4,4 5,1 9 5 13 7 SSW 1024,5 18 0 0,0
17.02.2019 12:00:00 9,2 5,3 9,2 6,4 4,2 5,1 7 4 11 6 SSW 1024,9 14 0 0,0
17.02.2019 11:00:00 8,6 4,9 8,6 5,8 4,0 5,1 7 4 14 8 SSW 1025,0 13 0 0,0
17.02.2019 10:00:00 7,9 4,5 7,9 4,9 3,8 5,1 9 5 14 7 SSW 1024,8 12 0 0,0
17.02.2019 09:00:00 6,8 3,5 6,6 4,2 3,7 5,1 9 5 12 6 SSW 1024,6 11 0 0,0
17.02.2019 08:00:00 6,0 3,1 5,7 3,6 3,7 5,1 9 5 14 7 S 1024,4 10 0 0,0
17.02.2019 07:00:00 5,8 2,6 5,2 3,3 3,6 5,1 8 5 12 7 SSW 1024,0 12 0 0,0
17.02.2019 06:00:00 5,5 2,0 4,9 3,0 3,6 5,1 7 4 14 8 SSW 1023,8 12 0 0,0
17.02.2019 05:00:00 5,0 1,3 4,5 2,6 3,6 5,1 9 5 12 6 S 1024,0 15 0 0,0
17.02.2019 04:00:00 4,6 1,2 4,1 1,9 3,7 5,1 9 5 11 6 S 1023,9 17 0 0,0
17.02.2019 03:00:00 3,7 0,2 2,0 1,0 3,8 5,1 9 5 13 7 SW 1024,0 19 0 0,0
17.02.2019 02:00:00 2,4 -0,2 -0,1 1,2 4,0 5,1 8 5 13 7 SSW 1023,6 20 0 0,0
17.02.2019 01:00:00 3,9 0,1 0,0 1,7 4,1 5,1 7 4 14 7 SSW 1023,8 19 0 0,0
17.02.2019 00:00:00 5,0 0,5 1,4 2,0 4,3 5,1 9 5 16 9 SW 1023,7 23 0 0,0
16.02.2019 23:00:00 6,2 0,6 3,2 2,1 4,5 5,1 11 6 16 9 WSW 1023,6 26 0 0,0
16.02.2019 22:00:00 5,6 0,5 1,4 2,5 4,7 5,1 10 6 16 9 WSW 1023,4 26 0 0,0
16.02.2019 21:00:00 5,3 0,3 0,7 2,8 4,9 5,1 9 5 14 7 SSW 1023,3 30 0 0,0
16.02.2019 20:00:00 6,8 0,7 3,7 3,6 5,1 5,1 11 6 14 8 SSW 1023,1 28 0 0,0
16.02.2019 19:00:00 8,1 0,3 2,8 4,5 5,2 5,1 9 5 16 8 SSW 1023,1 41 0 0,0
16.02.2019 18:00:00 10,9 0,5 7,7 5,6 5,1 5,1 12 7 19 11 SW 1022,7 42 0 0,0
16.02.2019 17:00:00 13,0 0,6 10,4 7,1 5,0 5,1 11 6 23 13 SSW 1022,5 53 52 0,0
16.02.2019 16:00:00 14,4 0,3 13,4 8,0 4,7 5,1 18 10 33 18 SW 1022,6 16 60 0,0
16.02.2019 15:00:00 14,3 1,0 14,1 8,6 4,3 5,1 20 11 32 18 SW 1023,0 15 60 0,0
16.02.2019 14:00:00 14,3 1,0 14,8 8,6 3,8 5,1 19 11 31 17 SW 1023,2 23 60 0,0
16.02.2019 13:00:00 13,5 1,0 14,0 7,8 3,4 5,1 18 10 32 17 SSW 1023,5 20 60 0,0
16.02.2019 12:00:00 12,3 0,1 13,3 6,4 3,0 5,1 21 11 31 17 WSW 1024,2 16 60 0,0
16.02.2019 11:00:00 9,3 1,1 10,3 3,5 3,0 5,1 11 6 17 9 S 1024,3 31 60 0,0
16.02.2019 10:00:00 6,2 0,1 6,6 0,8 3,0 5,1 11 6 24 13 SSW 1024,9 19 60 0,0
16.02.2019 09:00:00 3,3 -0,9 2,7 0,8 3,1 5,1 18 10 26 14 S 1025,1 17 48 0,0
16.02.2019 08:00:00 1,6 -1,6 0,6 0,8 3,2 5,1 19 10 27 14 S 1025,3 23 0 0,0
16.02.2019 07:00:00 1,5 -1,6 0,3 0,9 3,3 5,1 19 10 27 14 S 1025,4 19 0 0,0
16.02.2019 06:00:00 2,1 -1,4 0,9 0,9 3,4 5,1 20 11 25 13 S 1025,7 20 0 0,0
16.02.2019 05:00:00 1,9 -1,6 0,7 1,0 3,5 5,1 19 11 27 14 S 1026,7 23 0 0,0
16.02.2019 04:00:00 2,3 -1,7 1,0 1,0 3,6 5,0 19 10 24 13 S 1027,1 26 0 0,0
16.02.2019 03:00:00 2,0 -1,9 0,6 1,1 3,7 5,0 16 9 21 12 S 1027,6 25 0 0,0
16.02.2019 02:00:00 2,8 -1,7 1,1 1,1 3,9 5,0 14 8 21 11 S 1028,2 27 0 0,0
16.02.2019 01:00:00 2,6 -1,5 0,8 1,2 4,0 5,0 16 8 18 10 S 1029,0 23 0 0,0
16.02.2019 00:00:00 2,3 -1,2 0,5 1,3 4,2 5,0 14 8 18 10 S 1029,3 23 0 0,0
15.02.2019 23:00:00 2,3 -0,8 -1,7 1,3 4,5 5,0 9 5 13 7 S 1029,6 20 0 0,0
15.02.2019 22:00:00 2,4 -0,6 -1,4 1,5 4,7 5,0 10 6 13 7 S 1030,1 21 0 0,0
15.02.2019 21:00:00 3,9 0,0 0,9 2,1 5,0 5,0 12 6 17 9 S 1030,2 24 0 0,0
15.02.2019 20:00:00 4,6 0,1 0,2 2,6 5,3 5,0 11 6 14 8 S 1030,8 25 0 0,0
15.02.2019 19:00:00 3,9 0,4 -1,1 3,6 5,5 5,0 9 5 11 6 S 1031,1 17 0 0,0
15.02.2019 18:00:00 4,9 1,1 -0,3 5,0 5,6 5,0 5 3 7 4 SSE 1031,4 16 0 0,0
15.02.2019 17:00:00 5,0 2,6 3,2 6,7 5,5 5,0 5 3 8 4 SW 1031,5 6 54 0,0
15.02.2019 16:00:00 6,1 2,6 6,7 8,1 5,2 5,0 6 3 14 7 ENE 1032,0 8 60 0,0
15.02.2019 15:00:00 11,0 1,5 11,8 8,8 4,9 5,0 9 5 16 9 WSW 1032,2 18 60 0,0
15.02.2019 14:00:00 7,1 2,4 9,2 8,6 4,6 5,0 4 2 12 6 NE 1032,8 10 60 0,0
15.02.2019 13:00:00 7,4 1,7 9,8 7,7 4,3 5,0 9 5 15 8 SW 1033,4 10 60 0,0
15.02.2019 12:00:00 4,9 1,1 7,1 6,4 4,1 5,0 11 6 16 9 WSW 1033,7 7 60 0,0
15.02.2019 11:00:00 2,7 1,0 4,5 5,1 3,9 5,0 11 6 16 8 SW 1034,0 3,5 24 0,0
15.02.2019 10:00:00 2,5 1,8 3,3 3,9 3,9 4,9 6 4 13 7 SW 1034,2 1,6 0 0,0
15.02.2019 09:00:00 2,5 1,8 2,8 3,2 3,9 4,9 9 5 13 7 SW 1033,9 2,1 0 0,0
15.02.2019 08:00:00 2,9 1,8 2,7 3,0 3,8 4,9 8 5 15 8 WSW 1033,7 2,7 0 0,0
15.02.2019 07:00:00 3,2 2,2 2,9 2,9 3,8 4,9 9 5 17 9 W 1033,4 2,3 0 0,0
15.02.2019 06:00:00 3,2 2,4 2,9 2,8 3,8 4,9 8 5 16 9 W 1033,1 1,8 0 0,0
15.02.2019 05:00:00 3,4 2,7 3,0 2,5 3,9 4,9 6 3 16 9 W 1033,3 1,9 0 0,0
15.02.2019 04:00:00 3,3 2,6 2,9 1,9 4,0 4,9 10 5 17 9 WNW 1033,3 1,8 0 0,0
15.02.2019 03:00:00 2,7 2,2 2,1 1,2 4,1 4,9 13 7 24 13 W 1033,3 1,5 0 0,0
15.02.2019 02:00:00 0,1 -0,5 -2,3 1,3 4,3 4,9 7 4 11 6 WSW 1033,3 3,4 0 0,0
15.02.2019 01:00:00 0,4 -0,3 -2,7 1,3 4,5 4,8 7 4 11 6 SW 1033,3 3,4 0 0,0
15.02.2019 00:00:00 2,6 1,0 0,2 1,6 4,8 4,8 11 6 14 8 SW 1033,1 7 0 0,0
14.02.2019 23:00:00 3,0 1,8 1,0 1,9 5,1 4,8 11 6 13 7 SW 1033,1 5 0 0,0
14.02.2019 22:00:00 3,5 2,3 1,1 2,1 5,3 4,8 10 5 15 8 SW 1032,9 5 0 0,0
14.02.2019 21:00:00 2,4 1,7 -0,3 2,6 5,7 4,8 9 5 12 7 SSW 1033,1 3,8 0 0,0
14.02.2019 20:00:00 1,6 1,0 -1,9 3,4 5,9 4,8 5 3 9 5 SSW 1033,3 2,4 0 0,0
14.02.2019 19:00:00 3,5 2,1 -0,3 4,5 6,2 4,8 6 3 9 5 SSW 1033,7 6 0 0,0
14.02.2019 18:00:00 6,2 3,5 1,7 5,8 6,3 4,8 7 4 19 10 SSW 1033,6 10 0 0,0
14.02.2019 17:00:00 8,2 4,0 6,4 7,3 6,2 4,8 11 6 23 12 SW 1033,4 14 47 0,0
14.02.2019 16:00:00 9,6 4,2 9,4 8,5 6,1 4,8 15 8 23 12 SW 1033,4 17 60 0,0
14.02.2019 15:00:00 9,8 4,6 11,2 9,3 5,9 4,8 13 7 24 13 W 1033,5 18 60 0,0
14.02.2019 14:00:00 9,5 4,9 11,2 9,1 5,7 4,7 16 9 22 12 WSW 1033,9 10 15 0,0
14.02.2019 13:00:00 8,8 4,8 9,9 8,3 5,5 4,7 15 8 22 12 WSW 1034,6 8 0 0,0
14.02.2019 12:00:00 8,0 4,7 8,6 7,7 5,3 4,7 16 8 26 14 WSW 1034,3 8 0 0,0
14.02.2019 11:00:00 7,5 4,7 8,3 6,9 5,2 4,7 16 9 24 13 WSW 1033,9 7 0 0,0
14.02.2019 10:00:00 6,9 5,0 7,0 6,1 5,2 4,7 18 10 25 14 WSW 1034,0 4,6 0 0,0
14.02.2019 09:00:00 6,8 5,1 6,4 5,8 5,2 4,7 13 7 21 12 WSW 1034,2 3,9 0 0,0
14.02.2019 08:00:00 7,0 5,0 6,4 5,7 5,2 4,7 13 7 22 12 WSW 1034,1 5 0 0,0
14.02.2019 07:00:00 7,2 5,2 6,4 5,8 5,2 4,7 11 6 23 12 W 1033,6 6 0 0,0
14.02.2019 06:00:00 7,4 5,4 6,5 6,0 5,2 4,7 14 7 25 14 W 1032,9 6 0 0,0
14.02.2019 05:00:00 7,4 6,1 6,8 6,1 5,2 4,7 16 9 24 13 W 1033,0 3,9 0 0,0
14.02.2019 04:00:00 7,4 6,3 6,8 6,1 5,1 4,7 13 7 22 12 WSW 1032,6 4,2 0 0,0
14.02.2019 03:00:00 7,7 6,5 7,1 6,2 5,1 4,7 13 7 26 14 W 1032,3 4,9 0 0,0
14.02.2019 02:00:00 7,6 6,9 7,2 6,2 5,0 4,7 16 9 29 16 W 1032,2 3,1 0 0,0
14.02.2019 01:00:00 7,8 6,9 7,3 6,2 5,0 4,7 15 8 28 15 W 1031,9 4,7 0 0,0
14.02.2019 00:00:00 8,0 6,6 7,6 6,2 4,9 4,7 18 10 29 16 W 1031,6 10 0 0,0
13.02.2019 23:00:00 8,2 6,4 7,8 6,2 4,8 4,7 21 11 34 18 W 1031,2 14 0 0,0
13.02.2019 22:00:00 8,4 6,4 8,0 6,2 4,7 4,7 22 12 34 19 W 1031,0 12 0 0,0
13.02.2019 21:00:00 8,6 6,4 8,1 6,1 4,7 4,7 21 11 32 18 W 1031,0 11 0 0,0
13.02.2019 20:00:00 8,8 6,2 8,2 5,9 4,6 4,7 16 9 34 18 W 1030,5 17 0 0,0
13.02.2019 19:00:00 8,8 5,9 8,0 5,7 4,6 4,7 18 10 30 16 W 1030,1 23 0 0,0
13.02.2019 18:00:00 8,8 5,7 7,6 5,7 4,5 4,7 20 11 35 19 W 1029,7 30 0 0,0
13.02.2019 17:00:00 9,0 5,6 7,8 6,1 4,4 4,7 21 11 35 19 W 1029,1 41 0 0,0
13.02.2019 16:00:00 9,2 5,9 8,3 6,7 4,2 4,7 18 10 38 21 W 1029,1 36 2 0,0
13.02.2019 15:00:00 9,2 6,0 9,1 6,6 4,0 4,7 22 12 34 18 W 1029,1 23 0 0,0
13.02.2019 14:00:00 9,0 5,9 8,9 6,4 3,8 4,7 20 11 32 17 W 1028,9 23 0 0,0
13.02.2019 13:00:00 8,5 5,7 8,1 6,0 3,6 4,7 18 10 36 19 W 1028,4 19 0 0,0
13.02.2019 12:00:00 8,3 5,7 8,0 5,7 3,4 4,7 19 10 41 22 W 1027,8 15 0 0,0
13.02.2019 11:00:00 7,9 5,7 7,4 5,2 3,2 4,7 23 12 42 23 W 1027,3 12 0 0,0
13.02.2019 10:00:00 7,5 5,5 7,1 4,7 3,0 4,7 22 12 45 24 W 1026,5 9 0 0,0
13.02.2019 09:00:00 6,3 5,1 5,9 4,0 2,8 4,7 18 10 36 19 WSW 1026,3 4,5 0 0,0
13.02.2019 08:00:00 5,7 4,6 5,2 3,6 2,7 4,7 20 11 36 20 WSW 1026,4 3,7 0 0,0
13.02.2019 07:00:00 5,4 4,1 4,9 3,2 2,6 4,7 23 12 38 20 WSW 1026,1 3,8 0 0,0
13.02.2019 06:00:00 5,3 3,4 4,7 2,8 2,5 4,7 23 13 35 19 WSW 1026,0 6 0 0,0
13.02.2019 05:00:00 4,8 3,0 4,1 2,3 2,4 4,7 22 12 35 19 WSW 1026,3 7 0 0,0
13.02.2019 04:00:00 4,0 2,3 3,4 1,7 2,3 4,7 19 10 29 16 SW 1026,3 9 0 0,0
13.02.2019 03:00:00 3,3 1,8 2,6 1,0 2,4 4,7 19 11 27 15 SW 1027,2 12 0 0,0
13.02.2019 02:00:00 2,4 1,2 1,7 0,6 2,4 4,7 16 9 25 14 SW 1027,8 21 0 0,1
13.02.2019 01:00:00 1,9 0,7 1,2 0,6 2,5 4,8 13 7 20 11 SSW 1028,5 15 0 0,6
13.02.2019 00:00:00 1,5 -0,9 0,6 0,7 2,5 4,8 11 6 22 12 SW 1029,3 10 0 0,3
12.02.2019 23:00:00 1,8 -2,7 1,1 0,7 2,6 4,8 13 7 22 12 SW 1029,1 70 0 0,0
12.02.2019 22:00:00 0,9 -2,9 0,3 0,7 2,7 4,8 11 6 16 9 WSW 1029,3 67 0 0,0
12.02.2019 21:00:00 -0,4 -3,6 -1,6 0,8 2,8 4,8 8 4 11 6 SW 1029,3 64 0 0,0
12.02.2019 20:00:00 -0,4 -3,9 -2,4 0,8 2,9 4,8 8 4 21 11 SSW 1029,2 44 0 0,0
12.02.2019 19:00:00 1,4 -3,5 -1,3 0,7 3,1 4,8 10 5 16 9 W 1029,2 70 0 0,0
12.02.2019 18:00:00 2,2 -3,3 0,0 1,3 3,2 4,8 10 6 22 12 W 1028,9 70 0 0,0
12.02.2019 17:00:00 3,5 -2,8 1,7 2,5 3,1 4,8 14 8 28 15 W 1028,2 70 47 0,0

tt = Température de l'air
td = dewpoint
tt 5cm = Température de l'air 5cm
tt -5cm = Température de l'air -5cm
tt -20cm = Température de l'air -20cm
tt -100cm = Température de l'air -100cm
ff = Vitesse du vent
fx = gusts
dd = Direction du vent
ppp = reduced air pressure
vv = visibility
sd = Ensoleillement
rr = Quantités de précipitations

stations d'obs. à proximité